Vertical_Velocity
-1 -2 -1 -1 -1 -2 -1 -1 3 2 -2 -0 -0 -2 -2 -2 -0 1 -1 -1 0 -1 0 0 1 1 0 -2 -4 -1 3 2 -3 -2 -2 -3 -0 -0
-2 -2 -1 -0 -1 -1 -1 -1 -4 1 8 3 -2 -1 -0 -1 -3 -0 -0 1 -3 1 -1 -1 -0 -1 -1 -2 -1 -3 -5 -0 3 1 -2 -3 -1 -1
-2 -1 -0 -0 -2 -1 1 0 -2 -3 -2 1 1 2 -0 2 -2 -3 -3 -3 -4 1 0 -2 -2 0 1 1 -2 -2 1 -2 -2 -1 2 0 -2 -1
-2 -1 -1 -0 0 -2 -3 -2 -0 -2 -1 -1 -2 -2 -1 -1 -0 1 1 -0 -1 -2 -2 1 -2 -3 -2 -1 1 -1 -1 -1 -1 -2 -2 1 0 0
-1 0 -1 0 1 -1 2 0 -0 -0 0 1 0 0 1 1 -1 -1 -0 1 -1 3 -2 -2 -2 -1 -4 -3 -0 1 -2 -1 -3 -3 1 -3 -2 -1
-2 -0 -1 -0 -0 -1 -1 -0 -1 -1 -1 -2 1 1 -1 -1 -1 3 1 -4 1 -2 -7 -3 2 -0 -1 -1 0 -1 0 -2 1 -3 1 0 -3 -2
-1 0 1 -1 1 2 -1 -1 -1 -1 -0 -2 -3 0 2 1 2 0 -4 4 1 -0 8 2 6 2 -4 -3 -3 -3 -3 -0 -4 -2 -2 -0 3 -2
-2 -2 -0 1 1 1 -1 1 1 -1 1 -2 -3 -1 3 2 -1 -3 1 -4 3 -6 5 1 7 -1 4 -2 -3 -2 -1 -2 -4 -4 -3 -1 4 1
-1 0 1 1 0 0 -0 -1 0 -0 1 -1 -1 -2 -0 -0 -0 -5 -7 -4 -2 -11 -6 1 1 3 1 5 1 -3 -2 -0 -1 -0 -4 -6 -3 5
-0 0 1 3 1 1 0 -0 2 1 1 1 3 -1 -2 -3 -3 -5 -3 -0 1 -3 -7 -5 -3 -1 3 -4 0 1 -1 -5 -4 -0 0 0 -6 -3
-2 -0 2 1 1 -1 -1 -1 -1 -0 0 1 0 -0 -3 -1 -5 -4 -6 -4 -3 7 -9 -8 -3 -10 3 2 -1 -2 -2 -2 -1 -3 0 -2 -2 -2
-1 0 2 1 -1 0 -0 -0 0 1 2 1 -0 0 -3 -4 -1 0 -1 -4 -8 2 -1 -7 -4 -14 -10 9 -0 -1 -1 0 -0 -4 -6 -0 1 -5
2 2 1 1 1 1 1 3 3 2 2 2 0 -2 -4 -2 -4 -7 -6 -2 1 0 -2 -13 -1 1 -13 -24 12 -5 -11 0 -2 4 0 -8 -2 -1
1 1 2 1 3 2 3 3 2 2 1 1 0 0 1 -2 -0 2 2 -7 -7 -4 -1 -5 -16 -10 -7 -2 -13 7 2 -7 -10 -3 1 2 -1 -3
-1 2 2 3 1 2 2 4 3 4 3 -2 -2 1 -5 -3 2 1 1 -2 2 2 -2 -3 -9 -5 -7 -7 -8 -2 -5 5 -6 -10 -3 -2 4 -1
3 1 3 1 3 1 2 1 1 0 2 2 -2 -3 -2 -2 -3 -6 -2 -4 -8 8 4 -8 -4 -8 -4 -3 -11 -4 1 -11 1 -0 -14 -2 4 1
1 1 3 3 2 4 4 6 4 3 -2 -5 -4 -0 -2 -5 -3 -4 -2 -4 -9 -10 1 7 3 -6 -6 -10 -9 -2 -3 -3 2 -8 -13 -11 3 3
1 2 6 3 4 2 2 0 -2 1 1 -5 -1 -4 -3 -3 -3 0 -4 -6 -5 -1 -5 0 1 -3 2 7 2 -7 -0 -4 2 -1 -1 -7 -14 3
3 6 5 2 6 5 -3 -0 1 -4 2 -1 -11 -5 -3 -3 -4 1 -0 -2 -0 -6 -1 -1 -2 -0 -15 -18 9 2 -11 1 -1 -4 -2 1 -7 -3
4 8 5 5 9 -1 0 -2 -0 3 -7 -3 -3 -5 -3 -9 -0 -1 1 -3 -3 0 -4 6 2 0 -3 -7 -15 -7 16 -1 3 -3 -1 -1 -1 -4
-1 -3 7 9 -2 0 7 -1 1 -5 3 -2 -1 -4 -2 -5 -1 -4 0 3 -3 -3 -8 -6 2 1 -4 -5 -11 -9 9 8 2 -3 -1 -6 -2 0
5 -1 -6 1 3 -1 3 -3 2 1 0 -3 1 -6 -2 -1 -1 -4 -1 -6 -2 -3 -4 -3 2 2 -0 -3 -10 -13 -4 6 8 1 -3 -2 -4 -15
3 0 1 1 4 3 1 2 1 -3 -1 -3 -1 2 -1 -3 -1 1 -2 -1 -4 -5 -0 -6 0 3 1 -1 -3 -7 -4 0 -4 -1 6 4 -2 4
Height
3117 3116 3115 3114 3113 3112 3111 3111 3110 3108 3106 3105 3104 3102 3101 3099 3098 3097 3094 3092 3090 3088 3085 3084 3083 3082 3081 3079 3076 3073 3072 3071 3071 3071 3070 3069 3068 3067
3112 3111 3109 3108 3108 3107 3106 3106 3106 3105 3104 3101 3099 3097 3096 3094 3093 3091 3090 3088 3085 3084 3081 3079 3076 3074 3073 3073 3071 3069 3067 3066 3065 3064 3064 3064 3063 3063
3106 3105 3104 3103 3102 3102 3101 3101 3100 3099 3099 3097 3095 3093 3092 3090 3088 3086 3084 3082 3080 3078 3076 3074 3071 3068 3067 3066 3065 3064 3063 3061 3059 3058 3057 3057 3056 3056
3100 3099 3098 3098 3097 3096 3096 3096 3094 3094 3093 3092 3090 3088 3087 3085 3084 3082 3079 3077 3075 3073 3071 3068 3066 3064 3061 3058 3057 3057 3056 3054 3053 3052 3050 3049 3048 3048
3094 3093 3092 3092 3091 3090 3090 3089 3088 3087 3086 3086 3084 3082 3081 3079 3077 3076 3075 3072 3069 3068 3066 3062 3059 3058 3057 3054 3052 3049 3048 3047 3045 3044 3044 3043 3041 3040
3087 3086 3086 3085 3084 3084 3083 3083 3082 3081 3080 3079 3077 3076 3074 3072 3071 3070 3068 3066 3064 3061 3059 3056 3054 3051 3049 3047 3046 3043 3041 3039 3037 3037 3034 3034 3033 3032
3080 3079 3079 3078 3077 3077 3077 3077 3076 3075 3074 3072 3070 3069 3067 3066 3064 3062 3062 3061 3057 3055 3054 3050 3048 3045 3042 3039 3037 3035 3034 3032 3030 3029 3027 3026 3025 3023
3072 3072 3072 3072 3071 3071 3071 3070 3069 3068 3067 3065 3064 3061 3059 3058 3055 3053 3052 3051 3051 3044 3047 3045 3039 3038 3034 3030 3027 3026 3025 3022 3022 3020 3019 3017 3017 3016
3065 3065 3065 3064 3064 3064 3064 3063 3062 3061 3060 3058 3056 3055 3053 3051 3049 3046 3042 3041 3038 3036 3032 3035 3031 3029 3026 3023 3019 3017 3015 3013 3011 3009 3008 3008 3007 3006
3058 3058 3058 3057 3057 3057 3057 3057 3056 3054 3053 3051 3049 3047 3045 3043 3041 3038 3035 3033 3031 3028 3020 3018 3022 3019 3017 3014 3011 3008 3005 3003 3001 2999 2999 2998 2997 2996
3050 3050 3051 3051 3051 3051 3050 3049 3049 3047 3045 3044 3042 3040 3038 3035 3032 3031 3027 3024 3020 3023 3016 3008 3008 3005 3007 3008 3003 3000 2996 2993 2991 2989 2988 2987 2987 2986
3042 3043 3044 3044 3043 3043 3042 3041 3041 3040 3039 3037 3036 3033 3032 3030 3026 3022 3018 3016 3013 3008 3009 3000 3000 2994 2986 2993 2994 2991 2986 2984 2982 2979 2976 2975 2974 2973
3035 3036 3036 3036 3035 3035 3034 3034 3034 3033 3032 3031 3029 3027 3025 3023 3019 3015 3012 3008 3003 2999 2995 2987 2984 2982 2979 2971 2971 2979 2974 2972 2970 2969 2966 2964 2962 2961
3027 3028 3028 3027 3026 3026 3026 3026 3026 3026 3025 3023 3022 3020 3017 3015 3012 3009 3004 3001 2997 2991 2985 2980 2975 2970 2963 2959 2956 2955 2958 2959 2956 2954 2952 2951 2951 2948
3018 3018 3017 3017 3017 3018 3019 3019 3018 3018 3016 3014 3014 3012 3009 3007 3003 2999 2995 2991 2986 2982 2976 2970 2964 2959 2954 2949 2944 2940 2936 2941 2941 2939 2937 2935 2935 2935
3007 3007 3008 3007 3008 3010 3011 3011 3010 3009 3008 3005 3003 3001 2999 2996 2992 2988 2983 2977 2974 2971 2966 2960 2955 2949 2944 2940 2936 2932 2928 2923 2926 2926 2922 2920 2920 2920
2997 2998 2998 2997 3000 3002 3003 3003 3002 3000 2998 2996 2995 2991 2987 2985 2980 2975 2970 2964 2959 2954 2951 2950 2944 2939 2936 2932 2925 2923 2919 2915 2914 2911 2911 2910 2907 2906
2987 2988 2987 2987 2991 2993 2994 2994 2994 2993 2990 2987 2985 2982 2977 2973 2969 2963 2957 2953 2947 2942 2938 2936 2932 2928 2926 2926 2917 2912 2908 2905 2904 2902 2900 2895 2896 2895
2977 2977 2976 2978 2982 2982 2984 2986 2984 2984 2981 2978 2975 2971 2966 2962 2957 2952 2946 2941 2937 2932 2929 2926 2922 2917 2912 2907 2908 2904 2898 2896 2893 2891 2889 2887 2884 2886
2967 2967 2967 2970 2972 2973 2974 2976 2976 2973 2971 2968 2964 2959 2955 2950 2945 2941 2936 2931 2927 2923 2919 2917 2913 2908 2903 2897 2891 2895 2893 2886 2884 2880 2879 2877 2876 2875
2954 2957 2962 2962 2961 2963 2964 2965 2964 2963 2959 2955 2952 2947 2943 2938 2933 2930 2925 2921 2915 2912 2907 2906 2904 2899 2893 2889 2884 2883 2883 2879 2875 2870 2869 2867 2866 2865
2945 2945 2951 2954 2953 2953 2954 2953 2953 2950 2947 2943 2939 2935 2932 2928 2923 2918 2914 2909 2906 2902 2897 2895 2892 2889 2885 2879 2875 2871 2870 2869 2866 2863 2861 2860 2858 2855
2936 2939 2941 2944 2945 2944 2943 2942 2940 2938 2936 2932 2929 2925 2921 2918 2913 2908 2903 2898 2893 2889 2885 2882 2880 2878 2875 2871 2867 2863 2860 2857 2854 2853 2854 2853 2852 2850